Weather in Pocos de Caldas

Brazil     21°47′03″S   46°33′34″W
temp.,
°C
wind,
m/s
gust,
m/s
humid.,
%
clouds,
%
prec.,
mm/h
press.,
hPa
HPBL,
m
20 june, sun
sun2000:00+15se116934 0.0 101915
03:00+11ese01825 0.0 101910
06:00+13nw127342 0.0 101966
09:00+17nw266085 0.0 1020515
12:00+20wnw484721 0.0 10191343
15:00+20wsw485555 0.0 10161517
18:00+18wsw3863100 0.0 1018646
21:00+13ssw229049 0.1 102019
21 june, mon
mon2100:00+12ssw2194100 0.0 102015
03:00+12s1193100 0.0 102013
06:00+11s119316 0.0 102013
09:00+17e11696 0.0 1021241
12:00+24nw273987 0.0 10182115
15:00+24w254195 0.0 10161683
18:00+17ssw2267100 0.0 101817
21:00+17s1163100 0.0 102022
22 june, tue
tue2200:00+15se017332 0.0 102011
03:00+14sse117592 0.0 101910
06:00+15se117241 0.0 102011
09:00+20se015984 0.0 1021262
12:00+24w244667 0.0 10191274
15:00+24sw364512 0.0 10171628
18:00+17ssw237224 0.0 101945
21:00+15s2282100 0.0 102133
23 june, wed
wed2300:00+14sse228434 0.0 102121
03:00+14sse1186100 0.0 102114
06:00+12e11961 0.0 102213
09:00+17ene23761 0.0 1023385
12:00+22ne22550 0.0 10211027
15:00+23ne32497 0.0 10181319
18:00+16ene11745 0.0 102012
21:00+14se22855 0.0 102115
24 june, thu
thu2400:00+12ese229489 0.0 102226
03:00+11e22943 0.0 102132
06:00+10ese119432 0.0 102124
09:00+15ene246742 0.0 1021345
12:00+21ne335118 0.0 1019699
15:00+23nne23475 0.0 10151106
18:00+17se22708 0.0 101713
21:00+15se117627 0.0 101911